Boothville, LA

6:26 PM CDT on April 23, 2018 (GMT -0500)
Boothville

Weather History for KBVE - November, 2012

Change the Weather History Date:

Monday, November 26, 2012

  Actual Average (KAXO) Record (KAXO)
Temperature  
Mean Temperature 62 °F -  
Max Temperature 70 °F 63 °F 75 °F (2001)
Min Temperature 53 °F 61 °F 50 °F (2013)
Degree Days  
Heating Degree Days 4    
Growing Degree Days 12 (Base 50)    
Moisture  
Dew Point 62 °F    
Average Humidity 90    
Maximum Humidity 100    
Minimum Humidity 81    
Precipitation  
Precipitation 0.16 in - - ()
Sea Level Pressure  
Sea Level Pressure 30.13 in    
Wind  
Wind Speed 4 mph (SSE)    
Max Wind Speed 14 mph    
Max Gust Speed -    
Visibility 10 miles    
Events Rain    
Averages and records for this station are not official NWS values.
T = Trace of Precipitation, MM = Missing Value Source: NWS Daily Summary

Daily Weather History Graph

Daily Weather History Graph

Search for Another Location

Airport or City:

Astronomy

Nov. 26, 2012 Rise Set
Actual Time 6:30 AM CST 4:59 PM CST
Civil Twilight 6:05 AM CST 5:24 PM CST
Nautical Twilight 5:36 AM CST 5:53 PM CST
Astronomical Twilight 5:07 AM CST 6:22 PM CST
Moon 3:47 PM CST (11/26) 4:45 AM CST (11/26)
Length of Visible Light 11h 19m
Length of Day
10h 28m
Waxing Gibbous, 97% of the Moon is Illuminated
Nov 26
Waxing Gibbous
Nov 28
Full
Dec 6
Last Quarter
Dec 13
New
Dec 19
First Quarter

Hourly Weather History & Observations

Time (CST) Temp. Dew Point Humidity Pressure Visibility Wind Dir Wind Speed Gust Speed Precip Events Conditions
12:51 AM 53.1 °F 51.1 °F 93% 30.12 in 10.0 mi ESE 4.6 mph - N/A   Clear
1:51 AM 57.0 °F 55.0 °F 93% 30.10 in 10.0 mi SE 4.6 mph - N/A   Clear
2:51 AM 57.9 °F 55.9 °F 93% 30.10 in 10.0 mi SE 4.6 mph - N/A   Clear
3:51 AM 57.9 °F 55.9 °F 93% 30.10 in 10.0 mi SE 3.5 mph - N/A   Clear
4:51 AM 61.0 °F 57.9 °F 90% 30.09 in 10.0 mi ESE 4.6 mph - N/A   Clear
5:51 AM 61.0 °F 57.9 °F 90% 30.12 in 10.0 mi ESE 3.5 mph - N/A   Clear
6:51 AM 62.1 °F 59.0 °F 90% 30.12 in 10.0 mi SE 4.6 mph - 0.00 in Rain Light Rain
7:51 AM 63.0 °F 61.0 °F 93% 30.14 in 10.0 mi SSE 3.5 mph - 0.01 in Rain Light Rain
8:51 AM 66.9 °F 63.0 °F 87% 30.17 in 10.0 mi SSE 4.6 mph - 0.00 in Rain Light Rain
9:51 AM 66.9 °F 64.0 °F 90% 30.17 in 10.0 mi SSE 3.5 mph - 0.01 in Rain Light Rain
10:51 AM 69.1 °F 64.0 °F 84% 30.16 in 10.0 mi SSE 5.8 mph - 0.00 in   Overcast
11:51 AM 68.0 °F 64.0 °F 87% 30.14 in 10.0 mi SSE 5.8 mph - 0.00 in   Overcast
12:51 PM 70.0 °F 64.0 °F 81% 30.10 in 10.0 mi SE 4.6 mph - N/A   Mostly Cloudy
1:51 PM 70.0 °F 64.0 °F 81% 30.11 in 10.0 mi South 4.6 mph - N/A   Overcast
2:51 PM 70.0 °F 64.0 °F 81% 30.10 in 10.0 mi SSE 3.5 mph - N/A   Overcast
3:51 PM 70.0 °F 64.0 °F 81% 30.10 in 10.0 mi SE 3.5 mph - N/A   Overcast
4:51 PM 66.9 °F 63.0 °F 87% 30.11 in 10.0 mi Calm Calm - 0.00 in   Overcast
5:51 PM 64.9 °F 63.0 °F 93% 30.12 in 10.0 mi Calm Calm - N/A   Overcast
6:51 PM 64.9 °F 63.0 °F 93% 30.13 in 10.0 mi Calm Calm - N/A   Overcast
7:51 PM 64.9 °F 64.0 °F 97% 30.15 in 6.0 mi Calm Calm - 0.00 in   Overcast
8:51 PM 64.9 °F 64.0 °F 97% 30.15 in 9.0 mi South 6.9 mph - 0.00 in Rain Light Rain
9:51 PM 66.9 °F 66.0 °F 97% 30.14 in 9.0 mi SSE 13.8 mph - 0.05 in Rain Light Rain
10:51 PM 66.0 °F 64.9 °F 96% 30.15 in 5.0 mi South 6.9 mph - 0.06 in Rain Light Rain
11:51 PM 66.0 °F 66.0 °F 100% 30.13 in 8.0 mi SSE 10.4 mph - 0.03 in Rain Light Rain